Time,TemperatureF,DewpointF,PressureIn,WindDirection,WindDirectionDegrees,WindSpeedMPH,WindSpeedGustMPH,Humidity,HourlyPrecipIn,Conditions,Clouds,dailyrainin,SoftwareType,DateUTC
2013-01-12 00:09:00,64.8,63.0,29.92,SE,137,1.0,3.0,93,0.00,,,0.00,weatherlink.com 1.10,2013-01-12 06:09:00,
2013-01-12 00:24:00,64.7,63.0,29.92,ESE,114,0.0,2.0,93,0.00,,,0.00,weatherlink.com 1.10,2013-01-12 06:24:00,
2013-01-12 00:39:00,64.7,63.0,29.92,SE,128,0.0,2.0,94,0.00,,,0.00,weatherlink.com 1.10,2013-01-12 06:39:00,
2013-01-12 00:54:00,64.6,63.0,29.91,SE,132,1.0,3.0,94,0.00,,,0.00,weatherlink.com 1.10,2013-01-12 06:54:00,
2013-01-12 01:09:00,64.6,63.0,29.91,SE,141,1.0,3.0,94,0.00,,,0.00,weatherlink.com 1.10,2013-01-12 07:09:00,
2013-01-12 01:24:00,64.6,63.0,29.91,SSE,155,1.0,3.0,95,0.00,,,0.00,weatherlink.com 1.10,2013-01-12 07:24:00,
2013-01-12 01:39:00,64.7,63.0,29.91,SSE,149,2.0,6.0,95,0.00,,,0.00,weatherlink.com 1.10,2013-01-12 07:39:00,
2013-01-12 01:54:00,64.9,64.0,29.91,SE,138,2.0,4.0,95,0.00,,,0.00,weatherlink.com 1.10,2013-01-12 07:54:00,
2013-01-12 02:09:00,65.1,64.0,29.90,SE,143,0.0,3.0,96,0.00,,,0.00,weatherlink.com 1.10,2013-01-12 08:09:00,
2013-01-12 02:24:00,65.4,64.0,29.89,SE,132,0.0,4.0,96,0.00,,,0.00,weatherlink.com 1.10,2013-01-12 08:24:00,
2013-01-12 02:39:00,65.5,64.0,29.89,SSE,155,3.0,4.0,96,0.00,,,0.00,weatherlink.com 1.10,2013-01-12 08:39:00,
2013-01-12 02:54:00,65.7,65.0,29.89,SSE,157,1.0,3.0,96,0.00,,,0.00,weatherlink.com 1.10,2013-01-12 08:54:00,
2013-01-12 03:09:00,65.8,65.0,29.89,SSE,157,0.0,2.0,96,0.00,,,0.00,weatherlink.com 1.10,2013-01-12 09:09:00,
2013-01-12 03:24:00,65.9,65.0,29.89,SE,133,1.0,3.0,96,0.00,,,0.00,weatherlink.com 1.10,2013-01-12 09:24:00,
2013-01-12 03:39:00,66.0,65.0,29.88,SE,133,0.0,2.0,96,0.00,,,0.00,weatherlink.com 1.10,2013-01-12 09:39:00,
2013-01-12 03:54:00,66.6,66.0,29.88,SE,143,2.0,4.0,96,0.00,,,0.00,weatherlink.com 1.10,2013-01-12 09:54:00,
2013-01-12 04:09:00,67.6,67.0,29.88,SSE,155,3.0,4.0,97,0.01,,,0.01,weatherlink.com 1.10,2013-01-12 10:09:00,
2013-01-12 04:24:00,68.0,67.0,29.88,South,172,4.0,5.0,96,0.01,,,0.01,weatherlink.com 1.10,2013-01-12 10:24:00,
2013-01-12 04:39:00,68.2,67.0,29.88,SSE,159,3.0,5.0,97,0.01,,,0.01,weatherlink.com 1.10,2013-01-12 10:39:00,
2013-01-12 04:54:00,68.6,68.0,29.87,SSE,152,4.0,9.0,96,0.01,,,0.01,weatherlink.com 1.10,2013-01-12 10:54:00,
2013-01-12 05:09:00,68.6,68.0,29.87,South,171,4.0,6.0,96,0.00,,,0.01,weatherlink.com 1.10,2013-01-12 11:09:00,
2013-01-12 05:24:00,68.7,68.0,29.86,South,171,2.0,5.0,96,0.00,,,0.01,weatherlink.com 1.10,2013-01-12 11:24:00,
2013-01-12 05:39:00,68.9,68.0,29.86,ESE,116,3.0,5.0,97,0.00,,,0.01,weatherlink.com 1.10,2013-01-12 11:39:00,
2013-01-12 05:54:00,68.9,68.0,29.86,SE,144,3.0,4.0,97,0.00,,,0.01,weatherlink.com 1.10,2013-01-12 11:54:00,
2013-01-12 06:09:00,68.9,68.0,29.86,SSE,167,2.0,4.0,97,0.00,,,0.01,weatherlink.com 1.10,2013-01-12 12:09:00,
2013-01-12 06:24:00,69.0,68.0,29.86,SE,131,2.0,4.0,97,0.00,,,0.01,weatherlink.com 1.10,2013-01-12 12:24:00,
2013-01-12 06:39:00,69.3,68.0,29.87,SSE,161,2.0,6.0,96,0.00,,,0.01,weatherlink.com 1.10,2013-01-12 12:39:00,
2013-01-12 06:54:00,69.3,68.0,29.87,SSE,159,2.0,4.0,96,0.00,,,0.01,weatherlink.com 1.10,2013-01-12 12:54:00,
2013-01-12 07:09:00,69.4,69.0,29.87,SSE,152,2.0,5.0,97,0.01,,,0.02,weatherlink.com 1.10,2013-01-12 13:09:00,
2013-01-12 07:24:00,69.4,69.0,29.88,SSE,166,4.0,4.0,97,0.01,,,0.02,weatherlink.com 1.10,2013-01-12 13:24:00,
2013-01-12 07:39:00,69.6,69.0,29.88,SE,146,1.0,7.0,97,0.01,,,0.02,weatherlink.com 1.10,2013-01-12 13:39:00,
2013-01-12 07:54:00,69.7,69.0,29.88,SSE,151,3.0,6.0,96,0.01,,,0.02,weatherlink.com 1.10,2013-01-12 13:54:00,
2013-01-12 08:09:00,70.0,69.0,29.89,SSE,163,3.0,10.0,96,0.00,,,0.02,weatherlink.com 1.10,2013-01-12 14:09:00,
2013-01-12 08:24:00,70.4,69.0,29.89,South,171,4.0,8.0,94,0.00,,,0.02,weatherlink.com 1.10,2013-01-12 14:24:00,
2013-01-12 08:39:00,71.0,69.0,29.88,SSE,159,5.0,10.0,92,0.00,,,0.02,weatherlink.com 1.10,2013-01-12 14:39:00,
2013-01-12 08:54:00,71.3,69.0,29.89,SSE,165,6.0,9.0,91,0.00,,,0.02,weatherlink.com 1.10,2013-01-12 14:54:00,
2013-01-12 09:09:00,72.2,69.0,29.87,South,169,4.0,12.0,90,0.00,,,0.02,weatherlink.com 1.10,2013-01-12 15:09:00,
2013-01-12 09:24:00,72.4,69.0,29.88,SSE,155,4.0,16.0,89,0.00,,,0.02,weatherlink.com 1.10,2013-01-12 15:24:00,
2013-01-12 09:39:00,72.8,69.0,29.89,South,176,5.0,12.0,88,0.00,,,0.02,weatherlink.com 1.10,2013-01-12 15:39:00,
2013-01-12 09:54:00,73.4,69.0,29.89,SSE,151,2.0,11.0,87,0.00,,,0.02,weatherlink.com 1.10,2013-01-12 15:54:00,
2013-01-12 10:09:00,73.0,69.0,29.89,SSE,162,5.0,11.0,86,0.00,,,0.02,weatherlink.com 1.10,2013-01-12 16:09:00,
2013-01-12 10:25:00,72.9,69.0,29.89,South,173,4.0,13.0,87,0.00,,,0.02,weatherlink.com 1.10,2013-01-12 16:25:00,
2013-01-12 10:40:00,73.2,69.0,29.88,South,171,7.0,11.0,86,0.00,,,0.02,weatherlink.com 1.10,2013-01-12 16:40:00,
2013-01-12 10:55:00,73.4,68.0,29.87,SSE,151,6.0,10.0,84,0.00,,,0.02,weatherlink.com 1.10,2013-01-12 16:55:00,
2013-01-12 11:10:00,73.5,68.0,29.85,SE,143,5.0,14.0,84,0.00,,,0.02,weatherlink.com 1.10,2013-01-12 17:10:00,
2013-01-12 11:25:00,75.3,69.0,29.84,SSE,149,4.0,16.0,81,0.00,,,0.02,weatherlink.com 1.10,2013-01-12 17:25:00,
2013-01-12 11:40:00,75.7,69.0,29.83,SE,128,1.0,14.0,80,0.00,,,0.02,weatherlink.com 1.10,2013-01-12 17:40:00,
2013-01-12 11:55:00,75.2,69.0,29.83,SSE,148,13.0,16.0,80,0.00,,,0.02,weatherlink.com 1.10,2013-01-12 17:55:00,
2013-01-12 12:10:00,74.9,68.0,29.82,South,172,5.0,13.0,80,0.00,,,0.02,weatherlink.com 1.10,2013-01-12 18:10:00,
2013-01-12 12:25:00,74.7,68.0,29.81,South,190,8.0,16.0,80,0.00,,,0.02,weatherlink.com 1.10,2013-01-12 18:25:00,
2013-01-12 12:43:00,75.1,69.0,29.80,South,173,7.0,18.0,80,0.00,,,0.02,weatherlink.com 1.10,2013-01-12 18:43:00,
2013-01-12 12:55:00,75.1,69.0,29.79,SSE,162,6.0,18.0,80,0.00,,,0.02,weatherlink.com 1.10,2013-01-12 18:55:00,
2013-01-12 13:10:00,74.7,68.0,29.79,SSE,167,6.0,16.0,80,0.00,,,0.02,weatherlink.com 1.10,2013-01-12 19:10:00,
2013-01-12 13:25:00,74.2,68.0,29.79,South,178,5.0,13.0,81,0.00,,,0.02,weatherlink.com 1.10,2013-01-12 19:25:00,
2013-01-12 13:40:00,73.8,68.0,29.77,South,170,9.0,14.0,81,0.00,,,0.02,weatherlink.com 1.10,2013-01-12 19:40:00,
2013-01-12 13:55:00,73.3,68.0,29.77,SSE,159,8.0,12.0,83,0.00,,,0.02,weatherlink.com 1.10,2013-01-12 19:55:00,
2013-01-12 14:10:00,72.9,68.0,29.77,ESE,122,5.0,10.0,85,0.00,,,0.02,weatherlink.com 1.10,2013-01-12 20:10:00,
2013-01-12 14:25:00,73.2,68.0,29.77,SE,132,5.0,13.0,84,0.00,,,0.02,weatherlink.com 1.10,2013-01-12 20:25:00,
2013-01-12 14:40:00,73.0,68.0,29.77,SE,125,6.0,10.0,84,0.00,,,0.02,weatherlink.com 1.10,2013-01-12 20:40:00,
2013-01-12 14:55:00,72.6,68.0,29.77,South,170,7.0,11.0,86,0.00,,,0.02,weatherlink.com 1.10,2013-01-12 20:55:00,
2013-01-12 15:10:00,71.8,68.0,29.77,SE,144,4.0,14.0,88,0.00,,,0.02,weatherlink.com 1.10,2013-01-12 21:10:00,
2013-01-12 15:25:00,71.7,68.0,29.77,South,169,6.0,12.0,89,0.00,,,0.02,weatherlink.com 1.10,2013-01-12 21:25:00,
2013-01-12 15:40:00,71.8,69.0,29.77,SSE,159,5.0,9.0,89,0.00,,,0.02,weatherlink.com 1.10,2013-01-12 21:40:00,
2013-01-12 16:25:00,72.1,68.0,29.77,SSE,167,7.0,15.0,86,0.00,,,0.02,weatherlink.com 1.10,2013-01-12 22:25:00,
2013-01-12 16:40:00,72.1,68.0,29.77,SSE,163,5.0,9.0,86,0.00,,,0.02,weatherlink.com 1.10,2013-01-12 22:40:00,
2013-01-12 16:55:00,72.1,68.0,29.77,SSE,155,5.0,12.0,86,0.00,,,0.02,weatherlink.com 1.10,2013-01-12 22:55:00,
2013-01-12 17:10:00,72.0,68.0,29.77,SE,146,7.0,11.0,86,0.00,,,0.02,weatherlink.com 1.10,2013-01-12 23:10:00,
2013-01-12 17:25:00,72.0,68.0,29.76,SSE,156,7.0,13.0,86,0.00,,,0.02,weatherlink.com 1.10,2013-01-12 23:25:00,
2013-01-12 17:40:00,71.9,68.0,29.75,ESE,115,3.0,12.0,86,0.00,,,0.02,weatherlink.com 1.10,2013-01-12 23:40:00,
2013-01-12 17:55:00,71.8,68.0,29.76,SSE,150,8.0,15.0,86,0.00,,,0.02,weatherlink.com 1.10,2013-01-12 23:55:00,
2013-01-12 18:10:00,71.8,68.0,29.76,SSE,164,4.0,8.0,87,0.00,,,0.02,weatherlink.com 1.10,2013-01-13 00:10:00,
2013-01-12 18:25:00,71.9,68.0,29.76,SSE,157,7.0,12.0,87,0.00,,,0.02,weatherlink.com 1.10,2013-01-13 00:25:00,
2013-01-12 18:40:00,71.9,68.0,29.76,South,171,7.0,13.0,87,0.00,,,0.02,weatherlink.com 1.10,2013-01-13 00:40:00,
2013-01-12 18:55:00,71.9,68.0,29.76,SE,140,7.0,9.0,87,0.00,,,0.02,weatherlink.com 1.10,2013-01-13 00:55:00,
2013-01-12 19:10:00,72.1,68.0,29.77,South,173,6.0,11.0,87,0.00,,,0.02,weatherlink.com 1.10,2013-01-13 01:10:00,
2013-01-12 19:25:00,71.9,68.0,29.76,South,171,5.0,13.0,88,0.00,,,0.02,weatherlink.com 1.10,2013-01-13 01:25:00,
2013-01-12 19:40:00,71.5,68.0,29.76,SE,144,4.0,12.0,89,0.00,,,0.02,weatherlink.com 1.10,2013-01-13 01:40:00,
2013-01-12 19:55:00,70.9,68.0,29.75,SSE,162,3.0,10.0,91,0.01,,,0.03,weatherlink.com 1.10,2013-01-13 01:55:00,
2013-01-12 20:10:00,70.6,68.0,29.74,SSE,162,4.0,8.0,92,0.01,,,0.03,weatherlink.com 1.10,2013-01-13 02:10:00,
2013-01-12 20:25:00,70.6,69.0,29.74,SSE,156,5.0,7.0,93,0.01,,,0.03,weatherlink.com 1.10,2013-01-13 02:25:00,
2013-01-12 20:40:00,70.7,69.0,29.76,SSE,166,3.0,7.0,93,0.01,,,0.03,weatherlink.com 1.10,2013-01-13 02:40:00,
2013-01-12 20:55:00,70.8,69.0,29.75,SSE,161,3.0,7.0,93,0.00,,,0.03,weatherlink.com 1.10,2013-01-13 02:55:00,
2013-01-12 21:10:00,70.9,69.0,29.76,South,171,3.0,5.0,93,0.00,,,0.03,weatherlink.com 1.10,2013-01-13 03:10:00,
2013-01-12 21:25:00,70.9,69.0,29.76,South,175,3.0,4.0,93,0.00,,,0.03,weatherlink.com 1.10,2013-01-13 03:25:00,
2013-01-12 21:40:00,70.9,69.0,29.75,South,174,3.0,5.0,93,0.00,,,0.03,weatherlink.com 1.10,2013-01-13 03:40:00,
2013-01-12 21:55:00,71.0,69.0,29.75,SSE,167,5.0,8.0,93,0.00,,,0.03,weatherlink.com 1.10,2013-01-13 03:55:00,
2013-01-12 22:10:00,70.9,69.0,29.75,South,176,2.0,5.0,94,0.12,,,0.15,weatherlink.com 1.10,2013-01-13 04:10:00,
2013-01-12 22:26:00,70.6,69.0,29.75,SSE,161,7.0,7.0,95,0.22,,,0.25,weatherlink.com 1.10,2013-01-13 04:26:00,
2013-01-12 22:40:00,70.7,69.0,29.75,South,169,5.0,9.0,95,0.23,,,0.26,weatherlink.com 1.10,2013-01-13 04:40:00,
2013-01-12 22:55:00,70.8,69.0,29.74,SSE,164,6.0,10.0,95,0.24,,,0.27,weatherlink.com 1.10,2013-01-13 04:55:00,
2013-01-12 23:10:00,70.8,69.0,29.74,SSE,164,4.0,7.0,95,0.12,,,0.27,weatherlink.com 1.10,2013-01-13 05:10:00,
2013-01-12 23:25:00,70.8,69.0,29.74,SSE,159,6.0,9.0,95,0.02,,,0.27,weatherlink.com 1.10,2013-01-13 05:25:00,
2013-01-12 23:40:00,68.8,64.0,29.76,North,10,3.0,10.0,84,0.01,,,0.27,weatherlink.com 1.10,2013-01-13 05:40:00,
2013-01-12 23:55:00,59.3,56.0,29.79,NNW,343,6.0,9.0,87,0.00,,,0.27,weatherlink.com 1.10,2013-01-13 05:55:00,